Location: Newark
(44.2886°N, 4.8431°E)
Time: 14:15:37
(UTC+00:00)

ZACube-1 - Pass Details

Date: 04 December 2020
Orbit: 584 x 665 km, 97.6° (Epoch: 14 January)

Event Time Altitude Azimuth Distance (km) Brightness Sun altitude
Rises 17:28:50 0° 218° (SW) 2,842 ? -15.0°
Reaches altitude 10° 17:32:46 10° 256° (WSW) 1,930 ? -15.7°
Maximum altitude 17:33:51 11° 271° (W) 1,870 ? -15.9°
Drops below altitude 10° 17:34:58 10° 287° (WNW) 1,926 ? -16.1°
Sets 17:38:52 0° 324° (NW) 2,824 ? -16.7°
